User: anonymous   Login
Location: ????????
(37.9452°N, 23.1472°E)
Time: 22:15:36
(UTC+00:00)
Language:

ERS-1 Rocket - Orbit

View from above orbital plane
View from above orbital plane
View from above satellite
View from above satellite

Ground track
Ground track

The orbit data is extracted from the following two-line orbital elements,

1 21610U 91050F   24168.87582417  .00000594  00000-0  19456-3 0  9994
2 21610  98.2895 230.8064 0003432 163.0342 197.0964 14.41890600728058
Epoch (UTC): 16 June 2024 21:01:11
Eccentricity: 0.0003432
inclination: 98.2895°
perigee height: 750 km
apogee height: 755 km
right ascension of ascending node: 230.8064°
argument of perigee: 163.0342°
revolutions per day: 14.41890600
mean anomaly at epoch: 197.0964°
orbit number at epoch: 72805

The dashed part of the orbit path shows where the satellite is in the earth's shadow,  

DLR